Location: Beaurecueil
(43.5122°N, 5.5450°E)
Time: 04:30:08
(UTC+00:00)

Meteor 1-21 - Pass Details

Date: 18 June 2021
Orbit: 846 x 885 km, 81.2° (Epoch: 03 August)

Event Time Altitude Azimuth Distance (km) Brightness Sun altitude
Rises 21:35:36 0° 236° (SW) 3,427 7.3 -17.3°
Reaches altitude 10° 21:38:55 10° 256° (WSW) 2,488 6.8 -17.6°
Maximum altitude 21:42:32 17° 296° (WNW) 2,023 6.9 -17.9°
Drops below altitude 10° 21:46:09 10° 336° (NNW) 2,486 7.9 -18.2°
Sets 21:49:29 0° 356° (N) 3,422 8.6 -18.5°
